Tracking 29892 objects as of 21-Nov-2024
HD Live streaming from Space Station
objects crossing your sky now

CZ-6A DEB

Track CZ-6A DEB now!
10-day predictions


NORAD ID: 54921
Int'l Code: 2022-151RJ
Perigee: 668.3 km
Apogee: 840.8 km
Inclination: 98.6 °
Period: 99.8 minutes
Semi major axis: 7125 km
RCS: Unknown
Launch date: November 11, 2022
Source: People's Republic of China (PRC)
Launch site: Taiyaun Space Center, China (TSC)

Note: This is SATELLITE DEBRIS
Your satellite tracking list
Your tracking list is empty




NASA's NSSDC Master Catalog

Two Line Element Set (TLE):
1 54921U 22151RJ  24326.03354753  .00001589  00000-0  44469-3 0  9992
2 54921  98.6063 348.0196 0121086 237.3114 121.6352 14.43365494102977
Source of the keplerian elements: AFSPC